TimeCST,TemperatureF,Dew PointF,Humidity,Sea Level PressureIn,VisibilityMPH,Wind Direction,Wind SpeedMPH,Gust SpeedMPH,PrecipitationIn,Events,Conditions,WindDirDegrees,DateUTC
12:15 AM,49.1,34.2,56,30.13,10.0,South,11.5,-,N/A,,Clear,180,2013-11-09 06:15:00
12:35 AM,48.7,34.3,58,30.13,10.0,South,10.4,-,N/A,,Clear,170,2013-11-09 06:35:00
12:55 AM,48.2,34.5,59,30.13,10.0,South,13.8,-,N/A,,Clear,180,2013-11-09 06:55:00
1:15 AM,48.4,34.3,58,30.13,10.0,South,11.5,-,N/A,,Clear,170,2013-11-09 07:15:00
1:35 AM,47.5,34.7,61,30.12,10.0,South,12.7,-,N/A,,Clear,170,2013-11-09 07:35:00
1:55 AM,47.5,34.9,62,30.12,10.0,South,11.5,-,N/A,,Clear,180,2013-11-09 07:55:00
2:15 AM,46.6,35.2,65,30.13,10.0,South,10.4,-,N/A,,Clear,190,2013-11-09 08:15:00
2:35 AM,46.4,35.4,66,30.13,10.0,South,10.4,-,N/A,,Clear,190,2013-11-09 08:35:00
2:55 AM,46.6,35.6,66,30.11,10.0,South,12.7,-,N/A,,Clear,170,2013-11-09 08:55:00
3:15 AM,46.8,35.8,66,30.12,10.0,South,10.4,-,N/A,,Clear,190,2013-11-09 09:15:00
3:35 AM,46.0,36.1,68,30.11,10.0,South,11.5,-,N/A,,Clear,190,2013-11-09 09:35:00
3:55 AM,46.0,36.5,69,30.11,10.0,South,10.4,-,N/A,,Clear,190,2013-11-09 09:55:00
4:15 AM,45.9,36.5,70,30.10,10.0,South,11.5,-,N/A,,Clear,190,2013-11-09 10:15:00
4:35 AM,45.9,36.9,71,30.11,10.0,South,10.4,-,N/A,,Clear,190,2013-11-09 10:35:00
4:55 AM,46.0,37.2,71,30.11,10.0,South,9.2,-,N/A,,Clear,180,2013-11-09 10:55:00
5:15 AM,46.4,37.6,71,30.10,10.0,South,11.5,-,N/A,,Clear,180,2013-11-09 11:15:00
5:35 AM,47.1,38.3,71,30.09,10.0,South,15.0,-,N/A,,Clear,180,2013-11-09 11:35:00
5:55 AM,48.0,38.5,70,30.09,10.0,South,15.0,21.9,N/A,,Clear,190,2013-11-09 11:55:00
6:15 AM,48.2,38.7,70,30.10,10.0,South,12.7,19.6,N/A,,Clear,190,2013-11-09 12:15:00
6:35 AM,48.2,38.8,70,30.10,10.0,SSW,9.2,-,N/A,,Clear,210,2013-11-09 12:35:00
6:55 AM,48.4,39.2,71,30.11,10.0,SSW,9.2,-,N/A,,Clear,200,2013-11-09 12:55:00
7:15 AM,49.3,39.6,69,30.12,10.0,SSW,8.1,-,N/A,,Clear,200,2013-11-09 13:15:00
7:35 AM,51.8,40.3,65,30.12,10.0,SSW,10.4,-,N/A,,Clear,210,2013-11-09 13:35:00
7:55 AM,53.2,40.3,61,30.13,10.0,SSW,11.5,-,N/A,,Clear,200,2013-11-09 13:55:00
8:15 AM,54.7,40.3,58,30.13,10.0,SSW,13.8,20.7,N/A,,Clear,210,2013-11-09 14:15:00
8:35 AM,56.1,40.5,56,30.13,10.0,SSW,16.1,-,N/A,,Clear,210,2013-11-09 14:35:00
8:55 AM,57.6,40.6,53,30.13,10.0,SSW,13.8,-,N/A,,Clear,210,2013-11-09 14:55:00
9:15 AM,58.6,40.8,52,30.13,10.0,SSW,17.3,20.7,N/A,,Clear,210,2013-11-09 15:15:00
9:35 AM,59.5,40.8,50,30.13,10.0,SW,16.1,23.0,N/A,,Clear,220,2013-11-09 15:35:00
9:55 AM,60.8,40.8,48,30.13,10.0,SW,17.3,25.3,N/A,,Clear,220,2013-11-09 15:55:00
10:15 AM,61.3,41.0,47,30.13,10.0,SW,17.3,23.0,N/A,,Clear,220,2013-11-09 16:15:00
10:35 AM,62.2,41.2,46,30.13,10.0,SW,17.3,26.5,N/A,,Clear,230,2013-11-09 16:35:00
10:55 AM,62.6,41.2,45,30.13,10.0,SW,17.3,25.3,N/A,,Clear,230,2013-11-09 16:55:00
11:15 AM,63.3,41.4,45,30.13,10.0,WSW,15.0,24.2,N/A,,Clear,240,2013-11-09 17:15:00
11:35 AM,63.7,41.5,44,30.12,10.0,WSW,16.1,23.0,N/A,,Clear,250,2013-11-09 17:35:00
11:55 AM,64.2,41.9,44,30.11,10.0,WSW,13.8,21.9,N/A,,Clear,250,2013-11-09 17:55:00
12:15 PM,65.3,41.9,42,30.10,10.0,WSW,10.4,-,N/A,,Clear,240,2013-11-09 18:15:00
12:35 PM,65.8,41.2,41,30.10,10.0,SW,13.8,19.6,N/A,,Clear,220,2013-11-09 18:35:00
12:55 PM,66.0,41.0,40,30.09,10.0,SW,15.0,-,N/A,,Clear,220,2013-11-09 18:55:00
1:15 PM,66.4,41.2,40,30.09,10.0,SW,13.8,-,N/A,,Clear,230,2013-11-09 19:15:00
1:35 PM,66.7,40.6,39,30.09,10.0,WSW,11.5,-,N/A,,Clear,240,2013-11-09 19:35:00
1:55 PM,66.9,40.8,39,30.09,10.0,WSW,11.5,21.9,N/A,,Clear,240,2013-11-09 19:55:00
2:15 PM,67.5,41.4,39,30.09,10.0,WSW,15.0,18.4,N/A,,Clear,250,2013-11-09 20:15:00
2:35 PM,67.1,40.8,38,30.09,10.0,SW,15.0,19.6,N/A,,Clear,230,2013-11-09 20:35:00
2:55 PM,67.3,41.7,39,30.09,10.0,SW,13.8,-,N/A,,Clear,230,2013-11-09 20:55:00
3:15 PM,66.9,41.2,39,30.09,10.0,SW,12.7,-,N/A,,Clear,220,2013-11-09 21:15:00
3:35 PM,66.4,41.4,40,30.10,10.0,SW,13.8,-,N/A,,Clear,230,2013-11-09 21:35:00
3:55 PM,65.7,41.5,41,30.10,10.0,WSW,9.2,-,N/A,,Clear,240,2013-11-09 21:55:00
4:15 PM,64.4,42.4,45,30.11,10.0,SW,9.2,-,N/A,,Clear,230,2013-11-09 22:15:00
4:35 PM,62.8,42.3,47,30.11,10.0,SW,8.1,-,N/A,,Clear,230,2013-11-09 22:35:00
4:55 PM,59.5,42.4,53,30.12,10.0,SW,6.9,-,N/A,,Clear,230,2013-11-09 22:55:00
5:15 PM,58.1,42.4,56,30.13,10.0,SW,5.8,-,N/A,,Clear,230,2013-11-09 23:15:00
5:35 PM,56.5,42.8,60,30.13,10.0,SW,5.8,-,N/A,,Clear,220,2013-11-09 23:35:00
5:55 PM,54.7,42.8,64,30.14,10.0,SW,4.6,-,N/A,,Clear,220,2013-11-09 23:55:00
6:15 PM,54.0,42.4,65,30.15,10.0,SW,5.8,-,N/A,,Clear,220,2013-11-10 00:15:00
6:35 PM,54.3,42.3,64,30.15,10.0,SW,5.8,-,N/A,,Clear,230,2013-11-10 00:35:00
6:55 PM,54.5,42.3,63,30.16,10.0,SW,4.6,-,N/A,,Clear,220,2013-11-10 00:55:00
7:15 PM,53.8,42.4,65,30.16,10.0,SW,5.8,-,N/A,,Clear,220,2013-11-10 01:15:00
7:35 PM,54.1,41.9,63,30.16,10.0,SW,6.9,-,N/A,,Clear,230,2013-11-10 01:35:00
8:35 PM,52.0,41.5,68,30.18,10.0,Calm,Calm,-,N/A,,Clear,0,2013-11-10 02:35:00
8:55 PM,51.4,41.4,68,30.19,10.0,WSW,3.5,-,N/A,,Clear,240,2013-11-10 02:55:00
9:15 PM,47.7,40.5,76,30.19,10.0,SW,3.5,-,N/A,,Clear,230,2013-11-10 03:15:00
9:35 PM,51.3,41.2,68,30.19,10.0,SW,4.6,-,N/A,,Clear,230,2013-11-10 03:35:00
9:55 PM,48.0,40.5,75,30.20,10.0,SW,5.8,-,N/A,,Clear,230,2013-11-10 03:55:00
10:15 PM,48.0,41.0,77,30.20,10.0,WSW,3.5,-,N/A,,Clear,240,2013-11-10 04:15:00
10:35 PM,47.8,41.0,77,30.21,10.0,Calm,Calm,-,N/A,,Clear,0,2013-11-10 04:35:00
10:55 PM,47.3,41.0,79,30.21,10.0,Calm,Calm,-,N/A,,Clear,0,2013-11-10 04:55:00
11:15 PM,46.2,40.6,81,30.22,10.0,Calm,Calm,-,N/A,,Clear,0,2013-11-10 05:15:00
11:35 PM,44.6,39.9,84,30.22,10.0,Calm,Calm,-,N/A,,Clear,0,2013-11-10 05:35:00
11:55 PM,46.2,40.8,81,30.22,10.0,Calm,Calm,-,N/A,,Clear,0,2013-11-10 05:55:00